Location: Boullarre
(49.1305°N, 3.0047°E)
Time: 21:33:38
(UTC+00:00)

ISS - Pass Details

Date: 24 September 2024
Orbit: 411 x 423 km, 51.6° (Epoch: 14 October)

Event Time Altitude Azimuth Distance (km) Brightness Sun altitude
Rises 18:38:43 0° 286° (WNW) 2,366 2.3 -10.3°
Reaches altitude 10° 18:40:50 10° 289° (WNW) 1,504 0.6 -10.6°
Maximum altitude 18:44:11 67° 13° (NNE) 461 -3.6 -11.1°
Enters shadow 18:46:30 19° 94° (E) 1,086 -2.3 -11.5°
